EW4337 Weather Reports


time (UTC)temp
F
wind
direction
speed
knots
gust
knots
rain 1hr
in
rain 24hr
in
rain mn
in
humidity
%
barometer
mb
20180816215704 59 174 0.0 0.0 0.00 0.00 0.00 91 1014.9
20180816214704 59 174 0.0 0.0 0.00 0.00 0.00 90 1014.8
20180816213704 60 174 0.0 0.0 0.00 0.00 0.00 91 1014.9
20180816212704 60 174 0.0 0.0 0.00 0.00 0.00 91 1014.9
20180816211704 60 174 0.0 0.0 0.00 0.00 0.00 91 1014.9
20180816210704 60 174 0.0 0.0 0.00 0.00 0.00 90 1014.9
20180816205704 60 174 0.0 0.0 0.00 0.00 0.00 90 1014.9
20180816204704 60 174 0.0 0.0 0.00 0.00 0.00 89 1015.0
20180816203704 60 173 0.0 0.0 0.00 0.00 0.00 89 1015.1
20180816202703 60 174 0.0 0.0 0.00 0.00 0.00 89 1015.0
20180816201703 61 174 0.0 0.0 0.00 0.00 0.00 88 1015.0
20180816200703 61 174 0.0 0.0 0.00 0.00 0.00 88 1014.9
20180816195704 61 174 0.0 0.0 0.00 0.00 0.00 87 1015.1
20180816194704 61 174 0.0 0.0 0.00 0.00 0.00 87 1015.0
20180816193704 62 174 0.0 0.0 0.00 0.00 0.00 86 1015.2
20180816192705 62 174 0.0 0.0 0.00 0.00 0.00 86 1015.1
20180816191704 62 174 0.0 0.0 0.00 0.00 0.00 86 1015.1
20180816190704 63 302 0.0 0.0 0.00 0.00 0.00 85 1015.1
20180816185704 63 301 0.0 0.0 0.00 0.00 0.00 85 1014.9
20180816184704 63 301 0.0 0.0 0.00 0.00 0.00 84 1015.2
20180816183704 63 301 0.0 0.9 0.00 0.00 0.00 85 1015.1
20180816182703 63 302 0.9 2.6 0.00 0.00 0.00 85 1015.1
20180816181704 63 328 0.0 1.7 0.00 0.00 0.00 86 1015.0
20180816180704 63 306 0.9 6.1 0.00 0.00 0.00 86 1015.0
20180816175704 63 301 4.3 8.7 0.00 0.00 0.00 87 1015.0
20180816174704 64 305 5.2 11.3 0.00 0.00 0.00 86 1015.1
20180816173705 64 298 7.8 15.6 0.00 0.00 0.00 85 1015.2
20180816172704 65 284 7.8 13.0 0.00 0.00 0.00 82 1015.2
20180816171704 68 302 7.8 14.8 0.00 0.00 0.00 77 1015.1
20180816170704 71 259 8.7 14.8 0.00 0.00 0.00 72 1015.0
20180816165705 71 248 0.9 8.7 0.00 0.00 0.00 70 1014.6
20180816164704 72 229 4.3 10.4 0.00 0.00 0.00 70 1014.6
20180816163704 71 270 1.7 11.3 0.00 0.00 0.00 71 1014.6
20180816162705 71 238 1.7 11.3 0.00 0.00 0.00 71 1014.7
20180816161704 71 229 0.0 8.7 0.00 0.00 0.00 71 1014.6
20180816160705 71 241 4.3 10.4 0.00 0.00 0.00 70 1014.8
20180816155704 71 225 4.3 13.0 0.00 0.00 0.00 71 1014.7
20180816154704 71 240 4.3 11.3 0.00 0.00 0.00 70 1014.7
20180816153704 72 240 3.5 8.7 0.00 0.00 0.00 70 1014.6
20180816152705 72 209 5.2 13.0 0.00 0.00 0.00 69 1014.7
20180816151704 71 224 5.2 11.3 0.00 0.00 0.00 71 1014.7
20180816150704 71 244 1.7 11.3 0.00 0.00 0.00 71 1014.6
20180816145701 71 244 6.1 13.9 0.00 0.00 0.00 71 1014.7
20180816144700 71 249 5.2 10.4 0.00 0.00 0.00 71 1014.6
20180816143700 71 231 5.2 10.4 0.00 0.00 0.00 72 1014.5
20180816142700 71 252 6.1 15.6 0.00 0.00 0.00 71 1014.5
20180816141701 71 278 2.6 15.6 0.00 0.00 0.00 71 1014.5
20180816140701 72 251 4.3 14.8 0.00 0.00 0.00 71 1014.4
20180816135701 72 254 9.6 13.9 0.00 0.00 0.00 69 1014.4
20180816134701 72 255 8.7 15.6 0.00 0.00 0.00 68 1014.4
20180816133700 73 248 4.3 13.9 0.00 0.00 0.00 68 1014.3
20180816132701 73 240 6.1 14.8 0.00 0.00 0.00 67 1014.3
20180816131701 73 242 4.3 13.9 0.00 0.00 0.00 66 1014.3
20180816130701 74 215 4.3 10.4 0.00 0.00 0.00 65 1014.2
20180816125701 74 204 6.1 18.2 0.00 0.00 0.00 64 1014.3
20180816124700 74 224 4.3 13.9 0.00 0.00 0.00 64 1014.2
20180816123701 74 237 3.5 12.2 0.00 0.00 0.00 65 1014.3
20180816122700 74 239 5.2 12.2 0.00 0.00 0.00 64 1014.3
20180816121701 74 183 3.5 14.8 0.00 0.00 0.00 64 1014.2
20180816120701 74 177 1.7 13.9 0.00 0.00 0.00 64 1014.3
20180816115701 73 194 3.5 15.6 0.00 0.00 0.00 66 1014.5
20180816114701 73 214 4.3 13.0 0.00 0.00 0.00 65 1014.4
20180816113701 73 252 2.6 10.4 0.00 0.00 0.00 66 1014.4
20180816112701 72 250 1.7 12.2 0.00 0.00 0.00 68 1014.5
20180816111702 71 180 3.5 13.0 0.00 0.00 0.00 69 1014.6
20180816110701 71 221 6.1 17.4 0.00 0.00 0.00 69 1014.6
20180816105702 71 229 6.1 13.9 0.00 0.00 0.00 68 1014.7
20180816104701 72 252 5.2 13.9 0.00 0.00 0.00 68 1014.6
20180816103701 71 244 1.7 12.2 0.00 0.00 0.00 72 1014.8
20180816102702 70 208 3.5 13.0 0.00 0.00 0.00 71 1014.8
20180816101701 70 248 5.2 13.9 0.00 0.00 0.00 72 1014.9
20180816100701 69 241 1.7 13.0 0.00 0.00 0.00 75 1014.9
20180816095701 70 236 6.1 20.0 0.00 0.00 0.00 73 1015.0
20180816094702 70 216 1.7 10.4 0.00 0.00 0.00 73 1014.9
20180816093701 71 241 4.3 14.8 0.00 0.00 0.00 71 1014.7
20180816092701 72 250 1.7 13.9 0.00 0.00 0.00 72 1014.8
20180816091702 70 194 5.2 13.0 0.00 0.00 0.00 74 1014.8
20180816090702 70 210 6.1 14.8 0.00 0.00 0.00 75 1014.7
20180816085702 68 201 4.3 11.3 0.00 0.00 0.00 79 1014.7
20180816084701 68 225 1.7 13.0 0.00 0.00 0.00 78 1014.8
20180816083702 68 226 3.5 10.4 0.00 0.00 0.00 78 1014.7
20180816082701 68 176 0.9 8.7 0.00 0.00 0.00 81 1014.8
20180816081702 67 212 3.5 12.2 0.00 0.00 0.00 81 1014.8
20180816080702 66 168 4.3 14.8 0.00 0.00 0.00 82 1014.8
20180816075701 66 185 4.3 12.2 0.00 0.00 0.00 83 1014.8
20180816074702 66 217 0.9 10.4 0.00 0.00 0.00 84 1014.8
20180816073702 65 228 1.7 7.0 0.00 0.00 0.00 85 1014.9
20180816072702 65 246 2.6 12.2 0.00 0.00 0.00 86 1014.9
20180816071702 64 244 0.9 6.1 0.00 0.00 0.00 87 1015.1
20180816070702 64 190 0.9 11.3 0.00 0.00 0.00 88 1015.1
20180816065702 63 172 2.6 13.0 0.00 0.00 0.00 90 1015.0
20180816064702 62 200 1.7 8.7 0.00 0.00 0.00 91 1015.1
20180816063701 62 240 1.7 10.4 0.00 0.00 0.00 92 1015.1
20180816062702 61 210 3.5 11.3 0.00 0.00 0.00 92 1015.2
20180816061701 61 195 3.5 12.2 0.00 0.00 0.00 93 1015.3
20180816060702 60 195 1.7 12.2 0.00 0.00 0.00 93 1015.3
20180816055702 60 181 4.3 12.2 0.00 0.00 0.00 94 1015.3
20180816054702 60 182 1.7 10.4 0.00 0.00 0.00 94 1015.3
20180816053702 59 177 0.9 10.4 0.00 0.00 0.00 94 1015.3
20180816052702 59 163 2.6 12.2 0.00 0.00 0.00 94 1015.4
20180816051702 59 167 0.9 7.0 0.00 0.00 0.00 94 1015.4
20180816050702 59 186 0.9 8.7 0.00 0.00 0.00 94 1015.5
20180816045702 59 183 0.9 6.1 0.00 0.00 0.00 94 1015.5
20180816044702 59 166 0.0 8.7 0.00 0.00 0.00 93 1015.5
20180816043702 59 187 0.0 7.8 0.00 0.00 0.00 93 1015.5
20180816042702 59 185 0.0 4.3 0.00 0.00 0.00 93 1015.5
20180816041702 59 175 0.9 7.8 0.00 0.00 0.00 93 1015.5
20180816040703 60 176 1.7 7.8 0.00 0.00 0.00 93 1015.5
20180816035702 60 184 0.0 8.7 0.00 0.00 0.00 93 1015.5
20180816034702 60 168 0.9 10.4 0.00 0.00 0.00 92 1015.5
20180816033703 60 201 2.6 8.7 0.00 0.00 0.00 92 1015.5
20180816032703 60 168 1.7 7.8 0.00 0.00 0.00 92 1015.5
20180816031703 60 179 1.7 7.0 0.00 0.00 0.00 92 1015.6
20180816030702 61 188 0.9 7.8 0.00 0.00 0.00 92 1015.6
20180816025703 61 156 0.9 7.8 0.00 0.00 0.00 92 1015.7
20180816024702 61 166 0.9 4.3 0.00 0.00 0.00 91 1015.6
20180816023702 61 158 0.0 8.7 0.00 0.00 0.00 91 1015.7
20180816022702 61 172 0.9 7.0 0.00 0.00 0.00 91 1015.7
20180816021703 61 145 0.9 10.4 0.00 0.00 0.00 91 1015.7
20180816020703 61 159 2.6 7.8 0.00 0.00 0.00 91 1015.8
20180816015703 62 184 0.9 6.1 0.00 0.00 0.00 91 1015.9
20180816014702 62 172 0.9 7.8 0.00 0.00 0.00 91 1015.9
20180816013703 62 179 0.9 7.0 0.00 0.00 0.00 91 1016.0
20180816012702 62 166 0.0 7.0 0.00 0.00 0.00 91 1016.0
20180816011703 62 168 0.9 6.1 0.00 0.00 0.00 91 1016.2
20180816010703 62 153 0.9 7.8 0.00 0.00 0.00 92 1016.3
20180816005703 62 158 0.9 5.2 0.00 0.00 0.00 92 1016.3
20180816004703 62 176 0.9 5.2 0.00 0.00 0.00 92 1016.4
20180816003703 61 167 0.0 5.2 0.00 0.00 0.00 92 1016.5
20180816002703 61 169 0.0 7.0 0.00 0.00 0.00 91 1016.6
20180816001703 61 156 0.0 4.3 0.00 0.00 0.00 91 1016.6
20180816000703 61 178 1.7 7.0 0.00 0.00 0.00 91 1016.7
20180815235703 61 160 0.0 4.3 0.00 0.00 0.00 90 1016.8
20180815234703 62 176 0.0 2.6 0.00 0.00 0.00 90 1016.8
20180815233703 62 174 0.0 4.3 0.00 0.00 0.00 90 1017.0
20180815232703 62 166 0.0 4.3 0.00 0.00 0.00 89 1017.0
20180815231703 62 169 0.0 4.3 0.00 0.00 0.00 89 1017.0
20180815230704 62 157 0.0 2.6 0.00 0.00 0.00 89 1017.1
20180815225703 63 180 0.0 4.3 0.00 0.00 0.00 88 1017.1
20180815224703 63 171 0.9 4.3 0.00 0.00 0.00 88 1017.1
20180815223703 63 177 0.0 0.9 0.00 0.00 0.00 87 1017.1
20180815222703 63 188 0.0 0.0 0.00 0.00 0.00 87 1017.1
20180815221704 64 186 0.0 0.0 0.00 0.00 0.00 87 1017.1
20180815220703 64 173 0.0 2.6 0.00 0.00 0.00 87 1017.2